Tracking 19832 objects as of 25-Aug-2019
HD Live streaming from Space Station
objects crossing your sky now

BS-3B (YURI 3B)

Track BS-3B (YURI 3B) now!
BS-3B (YURI 3B) is classified as:


NORAD ID: 21668
Int'l Code: 1991-060A
Perigee: 36,198.3 km
Apogee: 36,228.4 km
Inclination: 13.3 °
Period: 1,457.6 minutes
Semi major axis: 42584 km
RCS: 1.6 m2 (large)
Launch date: August 25, 1991
Source: Japan (JPN)
Launch site: TANEGASHIMA SPACE CENTER (TNSTA)
aabbcc
Your satellite tracking list
Your tracking list is empty




NASA's NSSDC Master Catalog

Two Line Element Set (TLE):
1 21668U 91060A   19237.14691392 -.00000240  00000-0  00000+0 0  9992
2 21668  13.3172  13.6608 0003537  89.1490 265.6705  0.98793266104797
Source of the keplerian elements: AFSPC